Regional Weather Roundup
Issued by NWS Northern Indiana

Home | Current Version | Previous Version | Graphics & Text | Print | Product List | Glossary On
Versions: 1 2 3 4 5 6 7 8 9 10 11 12 13 14 15 16 17 18 19 20 21 22 23 24 25 26 27 28 29 30 31 32 33 34 35 36 37 38 39 40 41 42 43 44 45 46 47 48 49 50
000
ASUS43 KIWX 210701
RWRIWX

KIWX WEATHER ROUNDUP
NATIONAL WEATHER SERVICE NORTHERN INDIANA
300 AM EDT SAT OCT 21 2017

NOTE: "FAIR" INDICATES FEW OR NO CLOUDS BELOW 12,000 FEET WITH NO
SIGNIFICANT WEATHER AND/OR OBSTRUCTIONS TO VISIBILITY.

* THESE STATIONS ARE NOT UNDER NWS QUALITY CONTROL. THEY ALSO MAY NOT
  REPORT WEATHER SUCH AS PRECIPITATION OR FOG.

INZ001>027-210800-
NORTHERN INDIANA

CITY           SKY/WX    TMP DP  RH WIND       PRES   REMARKS
MICHIGAN CITY* CLOUDY    61  46  59 S10G16    30.11R
LAPORTE*       CLOUDY    57  49  74 S6        30.12S
KNOX*          CLOUDY    59  48  67 S7        30.12S
SOUTH BEND     CLOUDY    58  50  75 S7        30.13S
GOSHEN         CLOUDY    58  47  66 S8        30.14R
MONTICELLO*    MOCLDY    57  51  80 CALM      30.12S
WARSAW*        PTCLDY    57  48  72 CALM      30.14S
AUBURN*        CLOUDY    52  48  87 CALM      30.16S
FORT WAYNE     MOCLDY    54  48  80 S6        30.16S
PERU/GRISSOM   CLOUDY    55  49  81 S6        30.14R

$$
INZ028>050-210800-
CENTRAL INDIANA

CITY           SKY/WX    TMP DP  RH WIND       PRES   REMARKS
LAFAYETTE      CLOUDY    57  49  74 CALM      30.13R
KOKOMO*        CLOUDY    55  49  80 S6        30.15S
MUNCIE*        PTCLDY    61  50  67 S6        30.16S
INDIANAPOLIS   PTCLDY    57  49  74 S6        30.15S

$$
MIZ043>046-050>051-056>058-064>065-071>073-077>080-210800-
SOUTHWEST LOWER MICHIGAN

CITY           SKY/WX    TMP DP  RH WIND       PRES   REMARKS
BATTLE CREEK   PTCLDY    58  50  75 S9        30.14R
BENTON HARBOR  PTCLDY    63  47  55 S9        30.10S
COLDWATER*     PTCLDY    58  48  69 S3        30.14S
HILLSDALE*     PTCLDY    55  48  76 S5        30.16S
HOLLAND        PTCLDY    56  49  77 S6        30.10S
GRAND RAPIDS   PTCLDY    57  51  80 S7        30.11R
KALAMAZOO      CLOUDY    58  48  69 S7        30.13S
STURGIS*       PTCLDY    55  48  77 S5        30.14S
THREE RIVERS*  FAIR      54  49  81 S3        30.14R

$$
OHZ001>008-015>018-024>025-210800-
NORTHWEST OHIO

CITY           SKY/WX    TMP DP  RH WIND       PRES   REMARKS
DEFIANCE       CLOUDY    51  47  86 CALM      30.16F
FINDLAY        CLEAR     54  45  71 SE6       30.18S
TOLEDO EXPRESS PTCLDY    56  50  80 S3        30.17S
TOLEDO METCALF PTCLDY    53  45  74 S5        30.18S
LIMA           CLOUDY    54  50  86 S6        30.18F

$$
AND FOR LAKE MICHIGAN COASTAL AND OPEN LAKE BUOY OBSERVATIONS

STATION/POSITION TEMP    WIND        PRES    VSBY  WAVE
                 AIR SEA DIR/SP/G                  HT/PER
                 (F)     (DEG/KT/KT) (MB)    (MI)  (FT/S)
CALUMET HARBOR    64     180/  7/ 13 1017.5S
MICHIGAN CITY     62     170/ 13/ 15   N/A
BURNS HARBOR      63     180/ 11/ 17 1019.0S
SAINT JOSEPH      62     160/  3/  9 1019.0
SOUTH LAKE BUOY   63 61  180/ 16/ 19 1017.4          3/ 4
4 MI NW BRIDGMAN  62 59  190/ 10/ 12 1019.4R         1/ 3
MICHIGAN CITY     60 58  180/ 10/ 10   N/A           1

$$
&&




USA.gov is the U.S. government's official web portal to all federal, state and local government web resources and services.